Погода в Выборге

Погода в Выборге : погода сейчас, прогноз погоды и архив. Всё, что Вы хотите узнать о погоде в Выборге!

Хотите узнать прогноз погоды в Выборге? Тогда Вам сюда: Погода в Выборге

Поиск расширенной информации на нашем сайте:

Другие новости

Новости СМИ2

Главная страница сайта

Новости сайта

02.10.2013

Напоминаем, что на нашем новом сайте вы можете получить высокодетализированные прогнозы погоды по пунктам России, СНГ и мира (включающие важные для авиации метеовеличины, такие как направление и скорость ветра, видимость, явления погоды, количество и форма облачности, нижняя и верхняя граница облачности), а также ознакомиться с разнообразными материалами по авиационной метеорологии и подборкой полезных ссылок на эту тему.

Сайт Метеоцентр.Азия посвящён разработке технологий оптимизации авиаметеорологического обслуживания, включая проектирование и перспективное создание нескольких автоматизированных авиаметеорологических систем:
- система выпуска высокодетальных прогностических карт явлений погоды для нижнего воздушного пространства по России и ближнему зарубежью;
- система верификации прогнозов TAF (выпускаемых синоптиками официальных АМСГ РФ и ближнего зарубежья) и AUTOTAF (выпускаемых сайтом Метеоцентр.Азия) - выявление ошибок, онлайн-сопоставление с фактической погодой METAR, автоматическое внесение коррективов в прогнозы при резком отклонении фактической погоды от прогноза, подсчёт оправдываемости прогнозов по элементам и в целом;
- система обработки, анализа и отображения авиаметеорологической информации для применения провайдерами метеорологической информации.


Погода в Выборге - сегодня

Время (UTC), дата Ветер
(°,м/с) 
Видим.   Явления Облачность Т
(°С)
Тd
(°С)
f(%) Тe
(°С)
Pmin
(гПа)
dP
(гПа)
Po
(мм)
O2
(г/м3)
Тmin Tmax R s Состояние
почвы
06 23.05.17 260 (З) 10 км  {ливн. осадки}  9/3 600 м средняя, верхняя 
[Cu med, cong|Ac As|Ci sp]
+13.9 +8.7 71 +14  1007.7  0.5  755  288  +9.7    0.0    влажная 
09 23.05.17 210 (ЮЗ) 9-10{10}  20000 м    4/4 600 м 
[Cu hum]
+13.9 +8.8 71 +12  1008.1  0.3  755  288           
12 23.05.17 200 (Ю) 8-10{11}  20000 м    6/6 600 м 
[Cu hum]
+14.4 +8.8 69 +13  1008.4  0.3  755  288           
15 23.05.17 200 (Ю) 20000 м    6/6 600 м 
[Cu hum]
+16 +9.2 64 +16  1008.3  -0.1  755  286      0.0     
18 23.05.17 200 (Ю) 20000 м    8/8 600 м кучево-дожд. 
[Cb cap]
+14.8 +9.4 70 +15  1008.7  0.4  755  287    +16.5       
21 23.05.17 190 (Ю) 10 км  {ливн. осадки}  10/0 средняя 
[Ac As]
+11.8 +8.5 80 +12  1009.4  0.6  756  290           
00 24.05.17 210 (ЮЗ) 10 км  {ливн. осадки}  10/0 средняя 
[Ac As]
+10.5 +7.9 84 +10  1009.8  0.4  756  292           
03 24.05.17 090 (В) 20000 м    9/0 средняя 
[Ac As]
+10.1 +6.8 80 +10  1010.9  1.2  757  293  +9.7    0.0     
06 24.05.17 110 (В) 20000 м    9/6 600 м кучево-дожд., средняя 
[Cb cap|Ac trans]
+10.7 +4.9 67 +10  1012.3  1.3  758  293  +9.7    0.0     
09 24.05.17 060 (СВ) 20000 м    8/0 средняя, верхняя 
[Ac As|Ci fib]
+13.3 +4.9 57 +13  1013.2  0.9  759  291           
12 24.05.17 040 (СВ) 20000 м    6/0 средняя, верхняя 
[Ac As|Ci fib]
+18.1 +5.3 43 +20  1012.5  -0.7  758  286           
15 24.05.17 040 (СВ) 20000 м    6/0 средняя, верхняя 
[Ac As|Ci fib]
+17.6 +5.3 44 +18  1011.8  -0.6  758  286           
18 24.05.17 090 (В) 20000 м    8/0 средняя, верхняя 
[Ac As|Ci fib]
+17 +5.4 46 +18  1011.5  -0.3  758  287    +18.6       
21 24.05.17 070 (В) 10 км    9/0 средняя, верхняя 
[Ac As|Ci fib]
+13.8 +6.4 61 +15  1011.5  758  290           
00 25.05.17 тихо ()   10 км    9/0 средняя, верхняя 
[Ac As|Ci fib]
+11.3 +7 75 +11  1010.5  -1  757  292           
03 25.05.17 080 (В) 20000 м    9/0 средняя, верхняя 
[Cu hum|Ac As|Ci fib]
+11.5 +7.3 75 +13  1009.6  -1  756  291  +10.5         
06 25.05.17 220 (ЮЗ) 20000 м    9/4 600 м средняя, верхняя 
[Cu hum|Ac As|Ci fib]
+13.7 +10 78 +15  1008.7  -0.9  755  288  +10.5        влажная 
09 25.05.17 210 (ЮЗ) 20000 м    9/3 600 м средняя, верхняя 
[Cu med, cong|Ac As|Cs]
+14 +9.8 76 +14  1008.2  -0.5  755  288           
12 25.05.17 230 (ЮЗ) 8-11{13}  20000 м    9/4 600 м средняя, верхняя 
[Cu med, cong|Ac trans|Ci fib]
+14.7 +8.2 65 +14  1007  -1.1  754  287           
15 25.05.17 220 (ЮЗ) 5{13}  20000 м    9/6 600 м кучево-дожд., средняя, верхняя 
[Cb cap|Ac trans|Ci fib]
+12.9 +8.3 74 +12  1005.8  -1.3  753  288           
18 25.05.17 230 (ЮЗ) 20000 м    9/6 600 м кучево-дожд., средняя 
[Cb cap|Ac trans]
+13.9 +8.8 71 +15  1005.4  -0.4  753  287    +16       
21 25.05.17 350 (С) 10 км    8/4 600 м кучево-дожд., средняя 
[Cb cap|Ac trans]
+12 +5.5 64 +12  1006.5  1.1  754  290           
00 26.05.17 320 (СЗ) 20000 м    4/0 средняя 
[Ac trans]
+9 +3.3 67 +9  1007.2  0.6  754  294           
03 26.05.17 330 (СЗ) 20000 м    3/0 средняя 
[Ac trans]
+8.4 +3.6 72 +8  1007.9  0.7  755  295  +7.7         
06 26.05.17 330 (СЗ) 20000 м    5/0 средняя 
[Ac trans]
+12.2 +5.1 62 +12  1009.1  1.1  756  291  +7.7        сухая 
Время (UTC), дата Ветер
(°,м/с) 
Видим.   Явления Облачность Т
(°С)
Тd
(°С)
f(%) Тe
(°С)
Pmin
(гПа)
dP
(гПа)
Po
(мм)
O2
(г/м3)
Тmin Tmax R s Состояние
почвы

Для получения пояснительной информации подведите курсор к названию столбца.

ПОГОДА в Выборге - архив

Всё, что Вы хотите узнать о погоде в Выборге - удобно и подробно!

Выберите нужную дату (начиная с 1 января 2015* года) и нажмите кнопку "Найти".
Будут отображены архивные сводки погоды по пункту Выборг, начиная с указанной даты.


Отображать данные в формате CSV (для использования в таблицах Excel)


Внимание! Наш архив погоды предназначен исключительно для личного некоммерческого использования в познавательных целях. Если Вам необходимы официальные справки о состоянии погоды (для производственных, юридических, коммерческих и т.п. целей), обращайтесь в органы Росгидромета.

*Примечание: данная дата относится к архиву по метеостанциям СССР (Россия, СНГ, Балтия).
Архив по метеостанциям Зарубежной Европы и Азии (кроме Китая) хранится 10 дней, по другим регионам земного шара (Китай, Африка, Америка, Австралия, Океания) - 1 день.

Выборг - район местоположения метеостанции


Название, широта, долгота, высота метеостанции:
Выборг 60.7°ш. 28.7°д. 13 м над ур. моря [Российская Федерация]

Дополнительная информация

В oтличие oт бoльшинства пoгoдных сайтoв мы публикуем пoдрoбную метеoинфoрмацию в детальнoм прoфессиoнальнoм фoрмате.

Характеристики температуры и влажнoсти вoздуха измеряются на высoте 2 м в тени вдали oт зданий и деревьев.
Скoрoсть ветра измеряется на высoте 10 м (на урoвне рoста челoвека скoрoсть ветра ниже в 1.5-2 раза). Если метеoстанция нахoдится в гoрoде или в лесу, тo скoрoсть ветра занижена на 2-4 м/с пo сравнению с oткрытым местoм. Скoрoсть ветра над акватoриями крупных рек и oзёр, а также на вершинах хoлмoв на 2-5 м/с выше, чем в oбычных услoвиях.
Атмoсфернoе давление в разных тoчках местнoсти мoжет значительнo oтличаться oт давления на метеoстанции, в зависимoсти oт услoвий рельефа (при пoдъёме на 10 м давление пoнижается примернo на 1 мм рт.ст.).